Bishop, CA

12:28 PM PDT on May 22, 2018 (GMT -0700)
Bishop

Weather History for KBIH - February, 2014

Change the Weather History Date:

Saturday, February 8, 2014

  Actual Average Record
Temperature  
Mean Temperature 45 °F 41 °F  
Max Temperature 61 °F 56 °F 76 °F (1954)
Min Temperature 28 °F 25 °F -2 °F (1969)
Degree Days  
Heating Degree Days 20 24  
Month to date heating degree days 232 197  
Since 1 July heating degree days 2658 2766  
Cooling Degree Days 0 0  
Month to date cooling degree days 0 0  
Year to date cooling degree days 0 0  
Moisture  
Dew Point 28 °F    
Average Humidity 51    
Maximum Humidity 69    
Minimum Humidity 32    
Precipitation  
Precipitation 0.00 in 0.03 in 0.89 in (1962)
Month to date precipitation 0.00 0.23  
Year to date precipitation 0.20 1.28  
Snow  
Snow 0.00 in 0.00 in 0.30 in (1978)
Month to date snowfall 0.0 0.3  
Since 1 July snowfall 0.5 7.0  
Snow Depth 0.00 in    
Sea Level Pressure  
Sea Level Pressure 30.01 in    
Wind  
Wind Speed 5 mph (South)    
Max Wind Speed 14 mph    
Max Gust Speed 19 mph    
Visibility 10 miles    
Events      
T = Trace of Precipitation, MM = Missing Value Source: NWS Daily Summary

Daily Weather History Graph

Daily Weather History Graph

Search for Another Location

Airport or City:

Astronomy

Feb. 08, 2014 Rise Set
Actual Time 6:50 AM PST 5:25 PM PST
Civil Twilight 6:23 AM PST 5:52 PM PST
Nautical Twilight 5:52 AM PST 6:23 PM PST
Astronomical Twilight 5:21 AM PST 6:54 PM PST
Moon 12:25 PM PST (2/8) 2:05 AM PST (2/8)
Length of Visible Light 11h 29m
Length of Day
10h 35m
Waxing Gibbous, 69% of the Moon is Illuminated
Feb 8
Waxing Gibbous
Feb 14
Full
Feb 22
Last Quarter
Mar 1
New
Mar 8
First Quarter

Hourly Weather History & Observations

Time (PST) Temp. Windchill Dew Point Humidity Pressure Visibility Wind Dir Wind Speed Gust Speed Precip Events Conditions
12:56 AM 32.0 °F 24.8 °F 21.0 °F 64% 29.96 in 10.0 mi NNE 8.1 mph - N/A   Clear
1:56 AM 32.0 °F 28.7 °F 21.9 °F 66% 29.96 in 10.0 mi WNW 3.5 mph - N/A   Partly Cloudy
2:56 AM 34.0 °F 31.0 °F 23.0 °F 64% 29.95 in 10.0 mi East 3.5 mph - N/A   Clear
3:56 AM 33.1 °F 25.5 °F 23.0 °F 66% 29.97 in 10.0 mi NE 9.2 mph - N/A   Clear
4:56 AM 35.1 °F 29.3 °F 23.0 °F 61% 29.99 in 10.0 mi West 6.9 mph - N/A   Mostly Cloudy
5:56 AM 30.9 °F 25.2 °F 21.9 °F 69% 30.01 in 10.0 mi SE 5.8 mph - N/A   Partly Cloudy
6:56 AM 30.0 °F - 21.0 °F 69% 30.04 in 10.0 mi Calm Calm - N/A   Partly Cloudy
7:56 AM 37.0 °F - 24.1 °F 59% 30.06 in 10.0 mi Calm Calm - N/A   Mostly Cloudy
8:56 AM 46.0 °F 41.4 °F 28.0 °F 50% 30.06 in 10.0 mi South 9.2 mph - N/A   Overcast
9:56 AM 52.0 °F - 30.9 °F 45% 30.06 in 10.0 mi SSE 11.5 mph - N/A   Scattered Clouds
10:56 AM 55.0 °F - 30.9 °F 40% 30.05 in 10.0 mi South 8.1 mph - N/A   Scattered Clouds
11:56 AM 57.0 °F - 30.9 °F 37% 30.03 in 10.0 mi South 5.8 mph - N/A   Scattered Clouds
12:56 PM 60.1 °F - 30.9 °F 33% 29.99 in 10.0 mi SSE 9.2 mph - N/A   Scattered Clouds
1:56 PM 60.1 °F - 30.0 °F 32% 29.96 in 10.0 mi Calm Calm - N/A   Overcast
2:56 PM 60.1 °F - 30.0 °F 32% 29.96 in 10.0 mi West 4.6 mph - N/A   Mostly Cloudy
3:56 PM 60.1 °F - 30.0 °F 32% 29.96 in 10.0 mi SSE 3.5 mph - N/A   Mostly Cloudy
4:56 PM 57.9 °F - 32.0 °F 37% 29.99 in 10.0 mi West 4.6 mph - N/A   Overcast
5:56 PM 54.0 °F - 30.0 °F 40% 30.01 in 10.0 mi North 4.6 mph - N/A   Overcast
6:56 PM 53.1 °F - 30.9 °F 43% 30.03 in 10.0 mi Variable 3.5 mph - N/A   Overcast
7:56 PM 48.9 °F - 30.9 °F 50% 30.03 in 10.0 mi West 5.8 mph - N/A   Mostly Cloudy
8:56 PM 46.9 °F - 30.0 °F 52% 30.01 in 10.0 mi NE 8.1 mph - N/A   Scattered Clouds
9:56 PM 46.0 °F - 30.0 °F 54% 30.04 in 10.0 mi Calm Calm - N/A   Clear
10:56 PM 46.0 °F 44.8 °F 30.9 °F 56% 30.03 in 10.0 mi Variable 3.5 mph - N/A   Clear
11:56 PM 46.0 °F 44.8 °F 30.9 °F 56% 30.01 in 10.0 mi Variable 3.5 mph - N/A   Clear